{"data":{"norad_id":58673,"intl_designator":"2023-211G","name":"STARLINK-31131","alt_names":[],"object_type":"PAYLOAD","status":"ACTIVE","operator":null,"country":"US","launch_date":"2023-12-29","launch_site_code":"AFETR","launch_vehicle":null,"mission":null,"orbit_class":"UNKNOWN","rcs_meters":null,"size_class":null,"mass_kg":null,"dimensions":null,"purposes":["comms"],"wikipedia_slug":null,"has_3d_model":false,"image_url":null,"decayed_at":null,"tle_current":{"epoch":"2026-05-25T00:47:53.378016Z","epoch_age_seconds":65404,"freshness":"FRESH","line1":"1 58673U 23211G   26145.03325669  .00000632  00000+0  32489-4 0  9990","line2":"2 58673  43.0008   3.3345 0000825 272.0316  88.0441 15.27582286135549","mean_motion":15.27582286,"eccentricity":8.25e-5,"inclination_deg":43.0008,"raan_deg":3.3345,"arg_perigee_deg":272.0316,"mean_anomaly_deg":88.0441,"bstar":3.2489e-5,"rev_number":13554,"period_min":94.266607645122,"perigee_km":482.4762036536,"apogee_km":483.60829823001,"semimajor_km":6861.1792509418,"source":"CELESTRAK","updated_at":"2026-05-25T13:38:18.710988Z"}}}